Weather History for Quillayute, WA

Change the Weather History Date:

Monday, August 11, 2014

  Actual Average Record
Temperature  
Mean Temperature 69 °F 60 °F  
Max Temperature 85 °F 69 °F 93 °F (1992)
Min Temperature 52 °F 51 °F 44 °F (1966)
Degree Days  
Heating Degree Days 0 5  
Month to date heating degree days 37 55  
Since 1 June heating degree days 422 543  
Since 1 July heating degree days 173 249  
Cooling Degree Days 4 0  
Month to date cooling degree days 8 0  
Year to date cooling degree days 18 11  
Since 1 June cooling degree days 14 10  
Growing Degree Days 18 (Base 50)    
Moisture  
Dew Point 53 °F    
Average Humidity 65    
Maximum Humidity 93    
Minimum Humidity 37    
Precipitation  
Precipitation 0.00 in 0.07 in 1.67 in (1978)
Month to date precipitation 0.00 0.67  
Year to date precipitation 55.16 54.90  
Sea Level Pressure  
Sea Level Pressure 29.91 in    
Wind  
Wind Speed 4 mph (WSW)    
Max Wind Speed 14 mph    
Max Gust Speed 16 mph    
Visibility 8 miles    
Events      
T = Trace of Precipitation, MM = Missing Value Source: NWS Daily Summary

Daily Weather History Graph

Daily Weather History Graph

Search for Another Location

Airport:

Trip Planner

Search our weather history database for the weather conditions in past years. The results will help you decide how hot, cold, wet, or windy it might be!

Date:

Astronomy

Aug. 11, 2014 Rise Set
Actual Time 6:07 AM PDT 8:37 PM PDT
Civil Twilight 5:33 AM PDT 9:12 PM PDT
Nautical Twilight 4:49 AM PDT 9:56 PM PDT
Astronomical Twilight 3:58 AM PDT 10:46 PM PDT
Moon 8:57 PM PDT (8/11) 7:29 AM PDT (8/11)
Length of Visible Light 15h 39m
Length of Day
14h 29m
Full, 98% of the Moon is Illuminated
Aug 11
Full
Aug 17
Last Quarter
Aug 25
New
Sep 2
First Quarter
Sep 8
Full

Hourly Weather History & Observations

Time (PDT) Temp. Heat Index Dew Point Humidity Pressure Visibility Wind Dir Wind Speed Gust Speed Precip Events Conditions
12:53 AM 59.0 °F - 55.9 °F 90% 29.99 in 9.0 mi North 4.6 mph - N/A   Clear
1:53 AM 57.0 °F - 54.0 °F 89% 29.98 in 9.0 mi Calm Calm - N/A   Clear
2:53 AM 55.0 °F - 52.0 °F 89% 29.97 in 9.0 mi Calm Calm - N/A   Clear
3:53 AM 54.0 °F - 52.0 °F 93% 29.96 in 9.0 mi Calm Calm - N/A   Clear
4:53 AM 53.1 °F - 51.1 °F 93% 29.96 in 9.0 mi Calm Calm - N/A   Clear
5:53 AM 53.1 °F - 51.1 °F 93% 29.95 in 9.0 mi Calm Calm - N/A   Clear
6:53 AM 54.0 °F - 51.1 °F 90% 29.94 in 8.0 mi Calm Calm - N/A   Clear
7:53 AM 61.0 °F - 53.1 °F 75% 29.94 in 8.0 mi Calm Calm - N/A   Clear
8:53 AM 68.0 °F - 51.1 °F 55% 29.93 in 8.0 mi ESE 3.5 mph - N/A   Clear
9:53 AM 75.0 °F - 52.0 °F 44% 29.91 in 8.0 mi Calm Calm - N/A   Clear
10:53 AM 78.1 °F - 53.1 °F 42% 29.91 in 8.0 mi West 8.1 mph - N/A   Clear
11:53 AM 78.1 °F - 52.0 °F 40% 29.92 in 8.0 mi WSW 10.4 mph - N/A   Clear
12:53 PM 75.9 °F - 52.0 °F 43% 29.91 in 8.0 mi SW 8.1 mph - N/A   Clear
1:53 PM 82.0 °F 81.2 °F 53.1 °F 37% 29.90 in 8.0 mi West 9.2 mph - N/A   Clear
2:53 PM 77.0 °F - 52.0 °F 42% 29.90 in 8.0 mi WSW 9.2 mph - N/A   Clear
3:53 PM 82.0 °F 81.2 °F 53.1 °F 37% 29.88 in 8.0 mi Variable 4.6 mph - N/A   Clear
4:53 PM 82.9 °F 81.8 °F 53.1 °F 36% 29.86 in 8.0 mi WSW 6.9 mph - N/A   Clear
5:53 PM 75.0 °F - 55.9 °F 51% 29.85 in 8.0 mi WSW 9.2 mph - N/A   Clear
6:53 PM 68.0 °F - 55.9 °F 65% 29.85 in 6.0 mi WSW 6.9 mph - N/A   Haze
7:53 PM 66.0 °F - 55.9 °F 70% 29.85 in 6.0 mi WSW 4.6 mph - N/A   Haze
8:53 PM 63.0 °F - 55.0 °F 75% 29.85 in 7.0 mi West 3.5 mph - N/A   Clear
9:53 PM 61.0 °F - 55.0 °F 81% 29.86 in 8.0 mi East 3.5 mph - N/A   Clear
10:53 PM 57.9 °F - 54.0 °F 87% 29.87 in 7.0 mi Calm Calm - N/A   Clear
11:53 PM 55.9 °F - 54.0 °F 93% 29.88 in 5.0 mi WSW 3.5 mph - N/A   Clear